Vorticity
-6 13 11 5 6 15 17 7 1 11 25 14 10 49 -1 4 11 3 2 2 3 9 8 6 8 12 19 16 22 11 2 11 9 4 7 11 9 6 5 13 9 7 3 4
31 11 5 15 7 22 7 -3 8 3 19 12 30 13 23 4 3 6 7 2 7 6 16 11 4 9 11 8 24 30 15 10 12 4 9 6 6 15 5 5 9 11 7 1
-7 -8 1 16 7 10 7 1 16 21 11 54 22 5 -1 -6 -1 -2 -2 -1 10 13 12 11 14 10 8 9 7 22 31 19 13 9 1 7 11 5 14 8 7 8 12 9
3 1 -7 11 17 4 0 11 9 59 43 9 22 10 2 6 2 -3 14 15 7 3 3 5 7 10 10 6 7 11 21 24 21 15 13 4 4 8 7 13 11 8 8 13
-2 -2 4 -2 17 7 -6 45 2 9 28 15 -5 13 1 4 -8 10 5 3 4 5 9 6 9 6 6 9 14 20 20 19 26 16 20 15 11 7 8 5 14 13 8 15
6 2 11 -2 14 13 3 51 5 -5 18 14 7 13 18 3 7 3 3 8 8 6 4 9 4 6 6 3 7 19 11 16 15 23 20 22 20 13 7 6 3 15 10 9
3 8 4 -7 2 0 2 25 -7 11 6 -15 7 33 -7 4 14 0 5 6 10 7 8 5 0 1 1 3 7 16 10 11 14 12 18 20 20 24 14 11 3 1 12 12
8 7 -6 -9 6 9 13 21 22 9 4 -36 25 -7 -1 19 1 6 6 8 4 3 1 2 7 3 4 6 7 13 15 8 10 12 13 16 19 21 20 15 10 7 2 7
6 17 10 8 6 6 15 -2 15 27 18 32 6 -0 8 33 0 -7 4 2 9 7 1 0 7 5 8 3 3 13 15 7 13 7 11 14 18 13 22 17 15 11 7 1
-13 15 22 11 10 -7 18 -2 11 10 13 14 -9 33 -14 30 3 15 5 8 5 6 4 3 18 8 3 8 10 11 13 11 14 8 8 9 15 18 14 22 14 12 11 10
10 16 -15 16 21 -6 21 7 5 20 12 8 5 -8 20 10 13 2 -5 -2 -5 0 6 21 2 16 9 17 17 17 15 15 13 9 11 11 11 15 18 16 18 13 10 12
5 13 -0 32 14 1 -4 3 5 16 -11 -15 7 21 1 7 2 11 10 21 11 17 3 4 19 16 15 17 20 17 12 13 13 10 10 9 10 12 17 17 16 16 13 10
-0 -3 15 26 13 5 -20 20 1 0 30 10 8 -15 8 -26 4 10 5 16 -2 24 20 10 12 14 7 13 5 10 11 16 13 12 13 9 8 11 13 19 20 17 13 12
16 5 10 -14 -17 -0 5 4 9 15 20 -20 -14 -4 10 14 13 -5 10 10 30 5 6 10 6 11 10 11 8 3 11 18 16 18 15 12 4 14 11 17 19 22 15 12
7 9 6 5 18 12 11 11 15 18 21 23 -25 -5 23 8 8 11 31 13 2 14 18 9 8 6 3 11 8 12 17 20 22 16 16 12 5 12 11 13 18 20 21 17
9 -7 11 -8 34 14 -6 26 29 12 3 16 16 16 8 9 6 26 9 7 12 6 18 12 5 3 -1 14 13 16 17 21 17 14 18 13 8 14 13 13 17 20 21 22
20 7 -7 22 -2 8 46 -9 11 11 12 19 13 10 6 9 15 10 9 10 -9 14 16 1 9 3 15 18 17 12 18 18 14 13 14 10 10 19 14 11 13 16 18 24
13 11 24 -7 28 23 -28 -7 16 -0 8 13 3 9 13 9 8 9 6 1 12 8 13 9 -2 12 14 15 12 15 16 14 11 12 12 12 7 13 13 8 11 10 15 18
15 15 15 2 -16 -6 43 -9 1 11 -6 21 7 10 7 8 7 8 15 16 15 3 -0 5 14 12 18 9 11 12 11 12 11 10 11 13 13 8 12 6 7 7 10 14
13 9 0 4 13 2 -6 -9 5 17 37 -8 5 11 10 7 6 12 12 14 16 18 23 13 15 14 10 13 13 7 9 13 11 10 10 14 14 10 13 8 5 6 5 9
12 8 6 8 -8 4 15 6 13 25 -30 9 16 11 8 8 10 7 9 13 17 20 21 18 15 12 16 13 12 9 7 9 10 9 9 13 13 14 16 12 13 8 5 5
5 14 5 35 10 20 -14 12 11 -5 14 9 19 10 10 8 8 9 10 11 13 16 16 16 19 21 21 16 12 10 8 10 8 8 8 10 12 11 10 11 12 19 15 7
11 -2 -14 -11 -37 -2 12 7 18 12 12 12 16 13 13 8 8 8 9 10 10 12 14 16 17 20 25 22 12 12 15 13 10 8 8 9 9 9 11 9 10 15 18 19
27 34 -6 14 16 -3 21 16 11 13 9 8 9 15 8 11 6 8 7 10 9 10 11 12 13 17 19 22 24 20 13 12 13 11 11 10 9 8 9 8 9 11 10 11
31 16 28 11 22 14 12 8 16 13 10 7 10 17 11 13 7 8 7 10 9 9 9 10 9 13 14 17 20 25 20 13 11 14 15 16 14 13 11 9 10 11 9 10
20 21 17 14 14 12 9 9 11 11 13 10 12 13 14 10 13 7 7 9 9 9 9 8 9 10 9 13 15 19 24 26 20 16 12 10 13 12 11 11 13 12 14 13
Height
3144 3137 3131 3139 3140 3142 3142 3140 3136 3134 3131 3128 3129 3126 3124 3123 3119 3118 3115 3111 3109 3109 3106 3104 3100 3099 3096 3091 3092 3090 3091 3091 3090 3095 3099 3102 3104 3108 3111 3114 3117 3119 3122 3125
3147 3139 3145 3145 3142 3140 3139 3137 3133 3130 3127 3127 3126 3124 3124 3121 3119 3116 3113 3110 3109 3108 3105 3102 3099 3096 3093 3088 3086 3084 3084 3084 3085 3085 3091 3095 3098 3101 3103 3107 3111 3114 3117 3119
3147 3150 3148 3144 3141 3139 3138 3135 3130 3128 3122 3123 3121 3122 3122 3124 3119 3115 3113 3110 3108 3106 3104 3101 3098 3095 3091 3086 3083 3081 3078 3076 3076 3080 3082 3086 3090 3094 3097 3100 3104 3107 3111 3114
3150 3151 3148 3144 3141 3139 3135 3132 3130 3121 3121 3123 3120 3124 3123 3122 3118 3116 3113 3111 3109 3106 3103 3099 3096 3092 3088 3083 3080 3076 3074 3070 3068 3070 3076 3078 3083 3087 3090 3093 3097 3100 3103 3107
3153 3148 3147 3144 3142 3140 3139 3132 3129 3125 3123 3123 3123 3124 3121 3119 3118 3117 3115 3112 3108 3106 3102 3099 3095 3090 3085 3081 3077 3073 3071 3066 3064 3063 3068 3071 3074 3078 3082 3086 3089 3093 3096 3100
3148 3147 3147 3146 3146 3141 3139 3131 3128 3125 3123 3124 3123 3123 3119 3118 3117 3116 3113 3110 3107 3104 3101 3097 3093 3087 3083 3079 3074 3071 3068 3064 3060 3059 3058 3062 3066 3070 3074 3079 3083 3085 3089 3093
3152 3148 3146 3146 3144 3140 3136 3128 3128 3128 3127 3127 3121 3119 3116 3115 3113 3112 3111 3108 3105 3102 3098 3094 3089 3084 3080 3076 3071 3067 3065 3061 3057 3055 3054 3053 3057 3062 3066 3070 3075 3080 3083 3086
3154 3151 3148 3146 3143 3141 3138 3136 3138 3140 3135 3125 3120 3118 3114 3113 3112 3111 3108 3105 3102 3099 3095 3091 3086 3082 3077 3073 3068 3063 3060 3057 3054 3052 3050 3049 3049 3053 3058 3062 3067 3072 3076 3079
3152 3150 3146 3144 3142 3142 3139 3137 3137 3134 3129 3125 3119 3116 3112 3109 3109 3108 3106 3102 3098 3094 3090 3087 3083 3077 3073 3069 3065 3060 3056 3053 3050 3048 3047 3045 3044 3045 3049 3054 3059 3064 3069 3073
3154 3149 3148 3145 3144 3141 3139 3138 3136 3134 3134 3133 3118 3114 3111 3108 3106 3105 3103 3099 3095 3090 3086 3082 3078 3073 3069 3065 3061 3057 3052 3049 3046 3045 3043 3041 3040 3040 3042 3046 3052 3056 3060 3065
3151 3151 3150 3146 3141 3140 3139 3137 3135 3135 3134 3132 3128 3112 3108 3106 3104 3102 3098 3095 3090 3085 3081 3077 3072 3068 3064 3060 3056 3052 3048 3045 3042 3041 3039 3037 3036 3036 3037 3039 3044 3049 3053 3057
3152 3148 3144 3143 3140 3139 3138 3135 3133 3132 3130 3128 3125 3112 3106 3102 3100 3096 3093 3089 3084 3081 3076 3071 3067 3063 3059 3054 3050 3047 3044 3040 3037 3037 3036 3034 3033 3031 3031 3033 3036 3040 3045 3049
3150 3146 3144 3141 3141 3136 3132 3133 3130 3128 3126 3122 3123 3110 3104 3103 3098 3093 3087 3083 3079 3074 3069 3066 3063 3058 3054 3050 3047 3043 3039 3036 3034 3033 3032 3031 3029 3028 3027 3028 3030 3033 3036 3040
3148 3145 3143 3141 3137 3135 3131 3129 3127 3125 3122 3115 3110 3103 3102 3099 3092 3086 3082 3077 3072 3069 3065 3062 3058 3054 3050 3047 3043 3039 3035 3032 3030 3029 3028 3027 3027 3025 3024 3024 3025 3027 3029 3033
3145 3142 3140 3137 3133 3131 3127 3125 3122 3119 3116 3113 3102 3100 3098 3094 3088 3083 3078 3073 3070 3066 3062 3059 3054 3051 3048 3044 3040 3035 3032 3029 3026 3025 3024 3025 3024 3022 3021 3020 3021 3021 3023 3026
3141 3139 3135 3128 3126 3125 3121 3118 3116 3113 3110 3106 3103 3098 3095 3090 3087 3082 3076 3070 3066 3062 3058 3055 3051 3049 3044 3040 3035 3032 3029 3026 3024 3023 3023 3022 3021 3020 3019 3018 3018 3017 3017 3020
3139 3137 3134 3124 3123 3121 3116 3112 3110 3108 3106 3103 3098 3096 3090 3087 3083 3077 3071 3067 3063 3059 3055 3052 3049 3046 3042 3037 3033 3029 3027 3024 3023 3022 3020 3020 3019 3018 3018 3017 3016 3015 3014 3014
3138 3136 3134 3126 3122 3119 3110 3107 3106 3105 3102 3098 3093 3090 3087 3084 3079 3073 3070 3066 3061 3057 3053 3049 3046 3043 3039 3034 3030 3029 3026 3024 3022 3020 3019 3018 3017 3017 3017 3016 3015 3014 3012 3011
3135 3134 3132 3129 3124 3115 3108 3105 3103 3100 3097 3095 3093 3087 3084 3080 3076 3074 3069 3065 3060 3056 3052 3047 3043 3039 3035 3031 3029 3028 3025 3024 3022 3020 3018 3016 3015 3015 3015 3014 3013 3013 3011 3009
3130 3130 3131 3128 3126 3117 3106 3103 3102 3099 3093 3090 3088 3085 3082 3079 3075 3071 3066 3061 3057 3053 3048 3043 3039 3035 3031 3029 3027 3026 3023 3022 3020 3019 3017 3015 3013 3012 3012 3011 3010 3011 3010 3008
3130 3127 3124 3124 3123 3108 3104 3101 3100 3099 3098 3090 3087 3085 3081 3077 3074 3069 3064 3059 3055 3049 3044 3039 3035 3031 3028 3026 3025 3023 3021 3020 3019 3017 3016 3015 3013 3011 3010 3008 3007 3008 3008 3007
3127 3125 3120 3119 3117 3106 3101 3101 3100 3096 3090 3087 3083 3080 3077 3074 3071 3067 3062 3058 3053 3048 3043 3037 3033 3028 3024 3022 3021 3020 3019 3018 3017 3015 3014 3013 3012 3010 3008 3007 3005 3005 3005 3005
3122 3120 3118 3116 3107 3102 3099 3097 3095 3090 3088 3085 3081 3077 3074 3071 3068 3065 3061 3057 3053 3048 3043 3038 3032 3028 3023 3019 3018 3017 3017 3016 3016 3014 3012 3011 3010 3009 3007 3006 3005 3004 3003 3002
3114 3113 3108 3106 3102 3100 3098 3094 3090 3087 3082 3078 3074 3072 3070 3067 3065 3062 3059 3056 3052 3048 3043 3039 3033 3028 3023 3018 3014 3014 3014 3013 3013 3012 3011 3009 3008 3007 3006 3005 3005 3004 3002 3000
3111 3108 3102 3096 3093 3094 3092 3090 3086 3082 3078 3074 3071 3069 3067 3064 3061 3059 3057 3054 3051 3047 3044 3040 3035 3030 3025 3019 3015 3012 3011 3011 3010 3010 3009 3008 3007 3006 3005 3004 3004 3002 3001 2999
3103 3099 3096 3091 3090 3088 3085 3083 3081 3077 3074 3070 3067 3065 3062 3060 3058 3056 3054 3052 3049 3046 3044 3040 3037 3032 3028 3023 3018 3014 3011 3010 3009 3008 3008 3008 3007 3005 3004 3002 3001 2999 2998 2997